Tracking 29892 objects as of 21-Nov-2024
HD Live streaming from Space Station
objects crossing your sky now

SL-12 R/B(2)

Track SL-12 R/B(2) now!


NORAD ID: 19168
Int'l Code: 1988-043F
Perigee: 19,071.4 km
Apogee: 19,139.5 km
Inclination: 64.7 °
Period: 674.5 minutes
Semi major axis: 25476 km
RCS: 1.8506 m2 (large)
Launch date: May 21, 1988
Source: Commonwealth of Independent States (former USSR) (CIS)
Launch site: TYURATAM MISSILE AND SPACE COMPLEX (TTMTR)

Note: This is a ROCKET BODY
Your satellite tracking list
Your tracking list is empty




NASA's NSSDC Master Catalog

Two Line Element Set (TLE):
1 19168U 88043F   24324.64381873  .00000011  00000-0  00000-0 0  9995
2 19168  64.6764  91.1245 0013350 220.3038 135.5394  2.13498351284495
Source of the keplerian elements: AFSPC